| time (UTC) | temp F | wind direction | speed MPH | gust MPH | rain 1hr in | rain 24hr in | rain mn in | humidity % | barometer mb |
| 20260504150901 | 66 | 142 | 7.0 | 12.0 | 0.00 | 0.00 | 0.00 | 86 | 1016.3 |
| 20260504150520 | 67 | 142 | 7.0 | 13.0 | 0.00 | 0.00 | 0.00 | 86 | 1017.6 |
| 20260504140901 | 64 | 208 | 4.0 | 6.0 | 0.00 | 0.00 | 0.00 | 89 | 1016.4 |
| 20260504140515 | 65 | 208 | 4.0 | 6.0 | 0.00 | 0.00 | 0.00 | 89 | 1017.5 |
| 20260504130524 | 62 | 166 | 4.0 | 7.0 | 0.00 | 0.00 | 0.00 | 91 | 1017.3 |
| 20260504110520 | 60 | 140 | 4.0 | 7.0 | 0.00 | 0.00 | 0.00 | 90 | 1016.8 |
| 20260504100516 | 61 | 169 | 5.0 | 12.0 | 0.00 | 0.00 | 0.00 | 89 | 1017.4 |
| 20260504081536 | 60 | 142 | 1.0 | 4.0 | 0.00 | 0.00 | 0.00 | 89 | 1018.1 |
| 20260504080901 | 59 | 165 | 2.0 | 4.0 | 0.00 | 0.00 | 0.00 | 89 | 1017.5 |
| 20260504080518 | 60 | 166 | 2.0 | 5.0 | 0.00 | 0.00 | 0.00 | 89 | 1018.0 |
| 20260504050521 | 59 | 0.0 | 1.0 | 0.00 | 0.00 | 0.00 | 80 | 1019.9 | |
| 20260504045517 | 59 | 135 | 0.0 | 2.0 | 0.00 | 0.00 | 0.00 | 81 | 1019.8 |
| 20260504044545 | 58 | 0.0 | 0.0 | 0.00 | 0.00 | 0.00 | 84 | 1019.8 | |
| 20260504043901 | 58 | 0 | 0.0 | 0.0 | 0.00 | 0.00 | 0.00 | 82 | 1019.4 |
| 20260504043528 | 59 | 0.0 | 0.0 | 0.00 | 0.00 | 0.00 | 82 | 1019.8 | |
| 20260504042530 | 59 | 0.0 | 0.0 | 0.00 | 0.00 | 0.00 | 82 | 1019.8 | |
| 20260504041552 | 59 | 203 | 0.0 | 2.0 | 0.00 | 0.00 | 0.00 | 80 | 1019.8 |
| 20260504040901 | 59 | 0 | 0.0 | 0.0 | 0.00 | 0.00 | 0.00 | 78 | 1019.2 |
| 20260504040516 | 60 | 0.0 | 0.0 | 0.00 | 0.00 | 0.00 | 78 | 1019.7 | |
| 20260504035519 | 60 | 68 | 0.0 | 1.0 | 0.00 | 0.00 | 0.00 | 78 | 1019.8 |
| 20260504034601 | 61 | 0.0 | 0.0 | 0.00 | 0.00 | 0.00 | 76 | 1019.9 | |
| 20260504033901 | 61 | 0 | 0.0 | 0.0 | 0.00 | 0.00 | 0.00 | 75 | 1019.3 |
| 20260504033523 | 61 | 0.0 | 0.0 | 0.00 | 0.00 | 0.00 | 75 | 1019.9 | |
| 20260504032525 | 62 | 0.0 | 0.0 | 0.00 | 0.00 | 0.00 | 74 | 1019.9 | |
| 20260504031528 | 62 | 0.0 | 0.0 | 0.00 | 0.00 | 0.00 | 73 | 1019.8 | |
| 20260504030901 | 62 | 0 | 0.0 | 0.0 | 0.00 | 0.00 | 0.00 | 70 | 1019.1 |
| 20260504030550 | 63 | 0.0 | 0.0 | 0.00 | 0.00 | 0.00 | 70 | 1019.9 | |
| 20260504025552 | 63 | 0.0 | 0.0 | 0.00 | 0.00 | 0.00 | 69 | 1019.8 | |
| 20260504024536 | 64 | 0.0 | 0.0 | 0.00 | 0.00 | 0.00 | 67 | 1019.9 | |
| 20260504023901 | 64 | 184 | 0.0 | 1.0 | 0.00 | 0.00 | 0.00 | 66 | 1018.9 |
| 20260504023518 | 64 | 184 | 1.0 | 2.0 | 0.00 | 0.00 | 0.00 | 67 | 1019.9 |
| 20260504022521 | 64 | 113 | 0.0 | 2.0 | 0.00 | 0.00 | 0.00 | 66 | 1019.9 |
| 20260504021517 | 65 | 203 | 0.0 | 2.0 | 0.00 | 0.00 | 0.00 | 64 | 1019.9 |
| 20260504020901 | 65 | 0 | 0.0 | 1.0 | 0.00 | 0.00 | 0.00 | 61 | 1018.8 |
| 20260504020525 | 65 | 0.0 | 1.0 | 0.00 | 0.00 | 0.00 | 62 | 1019.9 | |
| 20260504015527 | 66 | 113 | 0.0 | 2.0 | 0.00 | 0.00 | 0.00 | 61 | 1019.8 |
| 20260504014529 | 67 | 0.0 | 0.0 | 0.00 | 0.00 | 0.00 | 57 | 1019.8 | |
| 20260504013901 | 68 | 148 | 1.0 | 5.0 | 0.00 | 0.00 | 0.00 | 56 | 1018.3 |
| 20260504013531 | 68 | 149 | 2.0 | 6.0 | 0.00 | 0.00 | 0.00 | 56 | 1019.7 |
| 20260504012536 | 69 | 187 | 3.0 | 5.0 | 0.00 | 0.00 | 0.00 | 55 | 1019.7 |
| 20260504011557 | 70 | 195 | 1.0 | 3.0 | 0.00 | 0.00 | 0.00 | 53 | 1019.6 |
| 20260504010901 | 70 | 150 | 2.0 | 2.0 | 0.00 | 0.00 | 0.00 | 51 | 1017.9 |
| 20260504010520 | 71 | 151 | 2.0 | 3.0 | 0.00 | 0.00 | 0.00 | 51 | 1019.6 |
| 20260504005522 | 72 | 160 | 2.0 | 4.0 | 0.00 | 0.00 | 0.00 | 49 | 1019.5 |
| 20260504004524 | 72 | 151 | 4.0 | 6.0 | 0.00 | 0.00 | 0.00 | 47 | 1019.4 |
| 20260504003901 | 72 | 157 | 4.0 | 7.0 | 0.00 | 0.00 | 0.00 | 45 | 1017.4 |
| 20260504003526 | 73 | 158 | 4.0 | 8.0 | 0.00 | 0.00 | 0.00 | 46 | 1019.4 |
| 20260504002527 | 73 | 154 | 5.0 | 7.0 | 0.00 | 0.00 | 0.00 | 45 | 1019.5 |
| 20260504001529 | 74 | 156 | 5.0 | 8.0 | 0.00 | 0.00 | 0.00 | 44 | 1019.6 |
| 20260504000901 | 75 | 174 | 4.0 | 7.0 | 0.00 | 0.00 | 0.00 | 43 | 1017.4 |
| 20260504000525 | 75 | 174 | 5.0 | 8.0 | 0.00 | 0.00 | 0.00 | 43 | 1019.6 |
| 20260503235521 | 76 | 184 | 6.0 | 12.0 | 0.00 | 0.00 | 0.00 | 42 | 1019.8 |
| 20260503234517 | 77 | 126 | 5.0 | 9.0 | 0.00 | 0.00 | 0.00 | 42 | 1019.8 |
| 20260503233901 | 76 | 151 | 6.0 | 10.0 | 0.00 | 0.00 | 0.00 | 40 | 1017.4 |
| 20260503233519 | 77 | 152 | 7.0 | 11.0 | 0.00 | 0.00 | 0.00 | 41 | 1019.8 |
| 20260503232521 | 78 | 162 | 5.0 | 9.0 | 0.00 | 0.00 | 0.00 | 39 | 1019.8 |
| 20260503231523 | 79 | 138 | 5.0 | 9.0 | 0.00 | 0.00 | 0.00 | 40 | 1019.9 |
| 20260503230901 | 76 | 143 | 6.0 | 10.0 | 0.00 | 0.00 | 0.00 | 40 | 1017.7 |
| 20260503230526 | 77 | 144 | 6.0 | 11.0 | 0.00 | 0.00 | 0.00 | 40 | 1020.0 |
| 20260503225528 | 76 | 177 | 5.0 | 7.0 | 0.00 | 0.00 | 0.00 | 41 | 1019.9 |
| 20260503224531 | 77 | 156 | 6.0 | 9.0 | 0.00 | 0.00 | 0.00 | 41 | 1020.0 |
| 20260503223901 | 76 | 169 | 6.0 | 12.0 | 0.00 | 0.00 | 0.00 | 39 | 1017.7 |
| 20260503223552 | 77 | 169 | 7.0 | 13.0 | 0.00 | 0.00 | 0.00 | 40 | 1020.1 |
| 20260503222517 | 78 | 141 | 7.0 | 11.0 | 0.00 | 0.00 | 0.00 | 38 | 1020.1 |
| 20260503221519 | 79 | 182 | 5.0 | 12.0 | 0.00 | 0.00 | 0.00 | 38 | 1020.1 |
| 20260503220901 | 78 | 132 | 6.0 | 9.0 | 0.00 | 0.00 | 0.00 | 37 | 1017.9 |
| 20260503220521 | 79 | 133 | 6.0 | 10.0 | 0.00 | 0.00 | 0.00 | 38 | 1020.4 |
| 20260503215524 | 79 | 152 | 8.0 | 11.0 | 0.00 | 0.00 | 0.00 | 37 | 1020.6 |
| 20260503214526 | 78 | 169 | 5.0 | 9.0 | 0.00 | 0.00 | 0.00 | 38 | 1020.8 |
| 20260503213901 | 77 | 157 | 6.0 | 9.0 | 0.00 | 0.00 | 0.00 | 37 | 1018.7 |
| 20260503213528 | 77 | 157 | 6.0 | 9.0 | 0.00 | 0.00 | 0.00 | 38 | 1021.1 |
| 20260503212524 | 78 | 136 | 5.0 | 8.0 | 0.00 | 0.00 | 0.00 | 36 | 1021.2 |
| 20260503211521 | 79 | 172 | 6.0 | 8.0 | 0.00 | 0.00 | 0.00 | 36 | 1021.4 |
| 20260503210901 | 78 | 179 | 7.0 | 11.0 | 0.00 | 0.00 | 0.00 | 36 | 1018.9 |
| 20260503210517 | 79 | 179 | 7.0 | 12.0 | 0.00 | 0.00 | 0.00 | 36 | 1021.5 |
| 20260503205539 | 79 | 157 | 6.0 | 10.0 | 0.00 | 0.00 | 0.00 | 36 | 1021.7 |
| 20260503204521 | 79 | 112 | 7.0 | 11.0 | 0.00 | 0.00 | 0.00 | 37 | 1022.1 |
| 20260503203901 | 79 | 152 | 5.0 | 10.0 | 0.00 | 0.00 | 0.00 | 37 | 1019.5 |
| 20260503203524 | 80 | 153 | 6.0 | 11.0 | 0.00 | 0.00 | 0.00 | 37 | 1022.2 |
| 20260503202527 | 78 | 183 | 4.0 | 8.0 | 0.00 | 0.00 | 0.00 | 38 | 1022.3 |
| 20260503201529 | 80 | 161 | 6.0 | 9.0 | 0.00 | 0.00 | 0.00 | 37 | 1022.4 |
| 20260503200901 | 79 | 155 | 6.0 | 10.0 | 0.00 | 0.00 | 0.00 | 37 | 1019.9 |
| 20260503200551 | 79 | 156 | 6.0 | 11.0 | 0.00 | 0.00 | 0.00 | 37 | 1022.5 |
| 20260503195555 | 79 | 163 | 7.0 | 13.0 | 0.00 | 0.00 | 0.00 | 38 | 1022.9 |
| 20260503194518 | 79 | 161 | 5.0 | 9.0 | 0.00 | 0.00 | 0.00 | 38 | 1023.1 |
| 20260503193901 | 79 | 170 | 5.0 | 7.0 | 0.00 | 0.00 | 0.00 | 38 | 1020.5 |
| 20260503193520 | 79 | 171 | 5.0 | 8.0 | 0.00 | 0.00 | 0.00 | 38 | 1023.2 |
| 20260503192523 | 79 | 129 | 5.0 | 8.0 | 0.00 | 0.00 | 0.00 | 36 | 1023.3 |
| 20260503191545 | 79 | 133 | 5.0 | 9.0 | 0.00 | 0.00 | 0.00 | 38 | 1023.4 |
| 20260503190901 | 77 | 171 | 6.0 | 11.0 | 0.00 | 0.00 | 0.00 | 37 | 1021.2 |
| 20260503190527 | 78 | 172 | 6.0 | 11.0 | 0.00 | 0.00 | 0.00 | 37 | 1023.7 |
| 20260503185529 | 81 | 133 | 4.0 | 7.0 | 0.00 | 0.00 | 0.00 | 37 | 1023.8 |
| 20260503184525 | 81 | 135 | 5.0 | 9.0 | 0.00 | 0.00 | 0.00 | 37 | 1023.9 |
| 20260503183901 | 77 | 165 | 6.0 | 9.0 | 0.00 | 0.00 | 0.00 | 36 | 1021.7 |
| 20260503183535 | 77 | 165 | 6.0 | 9.0 | 0.00 | 0.00 | 0.00 | 37 | 1024.2 |
| 20260503182518 | 78 | 121 | 5.0 | 9.0 | 0.00 | 0.00 | 0.00 | 39 | 1024.4 |
| 20260503181521 | 77 | 158 | 7.0 | 12.0 | 0.00 | 0.00 | 0.00 | 40 | 1024.5 |
| 20260503180901 | 76 | 156 | 4.0 | 8.0 | 0.00 | 0.00 | 0.00 | 39 | 1022.3 |
| 20260503180522 | 77 | 157 | 5.0 | 8.0 | 0.00 | 0.00 | 0.00 | 40 | 1024.6 |
| 20260503175525 | 76 | 165 | 7.0 | 14.0 | 0.00 | 0.00 | 0.00 | 42 | 1024.8 |
| 20260503174547 | 76 | 208 | 5.0 | 7.0 | 0.00 | 0.00 | 0.00 | 43 | 1024.8 |
| 20260503173901 | 75 | 149 | 4.0 | 7.0 | 0.00 | 0.00 | 0.00 | 43 | 1022.5 |
| 20260503173530 | 76 | 149 | 5.0 | 7.0 | 0.00 | 0.00 | 0.00 | 44 | 1025.2 |
| 20260503172531 | 75 | 184 | 5.0 | 10.0 | 0.00 | 0.00 | 0.00 | 43 | 1025.4 |
| 20260503171516 | 75 | 135 | 5.0 | 9.0 | 0.00 | 0.00 | 0.00 | 43 | 1025.5 |
| 20260503170901 | 75 | 165 | 5.0 | 10.0 | 0.00 | 0.00 | 0.00 | 41 | 1023.5 |
| 20260503170518 | 75 | 165 | 5.0 | 11.0 | 0.00 | 0.00 | 0.00 | 42 | 1025.7 |